Вернуться в каталог

RASSVET-3 26

АктивенPO
NORAD 100092·PAYLOAD·🇷🇺 Russia

Запущен Jul 19, 2026 с Plesetsk Cosmodrome

Loading…

Ближайшие Пролёты (ближайшие 24 часа)

TLE

СвежийSource: Space-Track

Эпоха: Sep 14, 2026, 12:37 UTC

1 A0092U 26165K   26257.52596879  .00088166  16398-5  26981-3 0  9994
2 A0092  82.2991 166.7758 0013217 188.6012 171.5037 15.91630153  9001

Отслеживайте RASSVET-3 26 в реальном времени с AllMySat

Download on the App Store